User: anonymous   Login
Location: Unspecified
(0.0000°N, 0.0000°E)
Time: 07:32:43
(UTC+01:00)
Language:

Cosmos 1933 - Orbit

View from above orbital plane
View from above orbital plane
View from above satellite
View from above satellite

Ground track
Ground track

The orbit data is extracted from the following two-line orbital elements,

1 18958U 88020A   16040.89093162 +.00001497 +00000-0 +10992-3 0  9993
2 18958 082.5278 219.6666 0012335 153.6794 206.5061 15.02718069496266
Epoch (UTC): 09 February 2016 21:22:56
Eccentricity: 0.0012335
inclination: 82.5278°
perigee height: 550 km
apogee height: 567 km
right ascension of ascending node: 219.6666°
argument of perigee: 153.6794°
revolutions per day: 15.02718069
mean anomaly at epoch: 206.5061°
orbit number at epoch: 49626

The dashed part of the orbit path shows where the satellite is in the earth's shadow,  

DLR